sat.trackr.live / text

‹ back to catalog

NUSAT-49 (KLARA DAN VO*)

NORAD 60500 · 2024-149AJ

PAYLOAD ACTIVE UNKNOWN

§ Identity

Operator
Country
ARGN
Launch date
2024-08-16
Launch site
AFWTR
Launch vehicle
Mass (kg)
RCS (m²)

External: N2YO · Heavens-Above · Gunter

§ Orbital elements

Epoch: 2026-09-22T17:02:46.098528Z

Period
94.11 min
Inclination
97.3730°
Eccentricity
0.0001358
Mean motion
15.30068975 rev/d
Perigee alt
474.7 km
Apogee alt
476.5 km
Semi-major
6,853.7 km
B*
2.0698e-4
RAAN
346.2994°
Arg perigee
12.7289°
Mean anomaly
347.3986°
Rev number
11,704

§ Raw data

NUSAT-49 (KLARA DAN VO*)1 60500U 24149AJ  26265.71025577  .00005947  00000+0  20698-3 0  99982 60500  97.3730 346.2994 0001358  12.7289 347.3986 15.30068975117042

JSON: /api/v1/satellites/60500 · /tle

For live sub-satellite position, see the globe view (requires WebGL).

§ Visibility from observer

Set your observer location to see the next 7 days of passes ≥ 10°. The values pass through the URL so the page stays shareable.

No JS? Fill the form by hand. The geolocation button needs JavaScript.